Location: Kalberh�ni
(46.4610°N, 7.2453°E)
Time: 20:54:10
(UTC+00:00)

Meteor 2-20 Rocket - Visible Passes

Search period start: 18 October 2021 00:00
Search period end: 28 October 2021 00:00
Orbit: 940 x 960 km, 82.5° (Epoch: 18 October)

Date Brightness Start Highest point End Pass type
(mag) Time Alt. Az. Time Alt. Az. Time Alt. Az.
18 Oct 7.0 04:49:45 10° SE 04:54:31 24° E 04:59:16 10° NNE visible
18 Oct 5.1 17:22:23 10° NNW 17:28:23 61° W 17:34:19 10° S visible
19 Oct 6.2 05:06:28 10° SSE 05:12:00 37° E 05:17:32 10° NNE visible
19 Oct 6.0 17:40:22 10° NNW 17:45:58 39° W 17:51:32 10° SSW visible
20 Oct 6.8 17:58:35 10° NNW 18:03:28 26° W 18:08:19 10° SW visible
21 Oct 7.6 04:00:21 10° ESE 04:03:20 14° ENE 04:06:19 10° NE visible
21 Oct 7.4 18:17:12 10° NW 18:20:51 17° W 18:24:30 10° WSW visible
22 Oct 7.0 04:16:10 10° SE 04:20:42 22° E 04:25:12 10° NE visible
22 Oct 7.9 18:37:59 10° WNW 18:38:08 10° WNW 18:38:19 10° WNW visible
23 Oct 6.3 04:32:46 10° SSE 04:38:09 34° E 04:43:32 10° NNE visible
23 Oct 5.9 17:06:24 10° NNW 17:12:06 43° W 17:17:48 10° SSW visible
24 Oct 5.4 04:49:50 10° SSE 04:55:43 52° E 05:01:36 10° NNE visible
24 Oct 6.7 17:24:33 10° NNW 17:29:38 28° W 17:34:41 10° SW visible
25 Oct 7.6 03:27:07 10° E 03:29:33 13° ENE 03:31:58 10° NE visible
25 Oct 4.7 05:07:16 10° S 05:13:22 79° E 05:19:29 10° NNE visible
25 Oct 7.3 17:43:03 10° NW 17:47:03 18° W 17:51:02 10° WSW visible
26 Oct 7.0 03:42:38 10° SE 03:46:52 20° E 03:51:07 10° NE visible
26 Oct 4.4 05:25:03 10° SSW 05:31:07 69° W 05:37:13 10° N visible
26 Oct 7.7 18:02:33 10° WNW 18:04:21 11° WNW 18:06:10 10° W visible
27 Oct 6.3 03:59:05 10° SE 04:04:19 31° E 04:09:32 10° NNE visible
